Alexandria, MN

11:44 AM CST on December 05, 2019 (GMT -0600)
Chandler

Weather History for KAXN - October, 2019

Change the Weather History Date:

Friday, October 4, 2019

  Actual Average Record
Temperature  
Mean Temperature 45 °F -  
Max Temperature 50 °F 61 °F 83 °F (1975)
Min Temperature 42 °F 39 °F 25 °F (1952)
Degree Days  
Heating Degree Days 20    
Moisture  
Dew Point 37 °F    
Average Humidity 77    
Maximum Humidity 93    
Minimum Humidity 68    
Precipitation  
Precipitation 0.09 in - - ()
Sea Level Pressure  
Sea Level Pressure 30.34 in    
Wind  
Wind Speed 8 mph ()    
Max Wind Speed 17 mph    
Max Gust Speed 30 mph    
Visibility 9.7 miles    
Events Rain    
Averages and records for this station are not official NWS values.
T = Trace of Precipitation, MM = Missing Value Source: Averaged Metar Reports

Daily Weather History Graph

Daily Weather History Graph

Search for Another Location

Airport or City:

Astronomy

Oct. 04, 2019 Rise Set
Actual Time 7:23 AM CDT 6:56 PM CDT
Civil Twilight 6:53 AM CDT 7:25 PM CDT
Nautical Twilight 6:19 AM CDT 8:00 PM CDT
Astronomical Twilight 5:44 AM CDT 8:35 PM CDT
Moon 2:13 PM CDT (10/4) 11:08 PM CDT (10/4)
Length of Visible Light 12h 32m
Length of Day
11h 32m
Waxing Crescent, 40% of the Moon is Illuminated
Oct 4
Waxing Crescent
Oct 5
First Quarter
Oct 13
Full
Oct 21
Last Quarter
Oct 27
New

Hourly Weather History & Observations

Time (CDT) Temp. Windchill Dew Point Humidity Pressure Visibility Wind Dir Wind Speed Gust Speed Precip Events Conditions
12:53 AM 43.0 °F 40.3 °F 35.1 °F 74% 30.44 in 10.0 mi ENE 4.6 mph - N/A   Overcast
1:53 AM 43.0 °F 41.3 °F 36.0 °F 76% 30.45 in 10.0 mi ENE 3.5 mph - N/A   Overcast
2:53 AM 43.0 °F 41.3 °F 36.0 °F 76% 30.45 in 10.0 mi ENE 3.5 mph - N/A   Overcast
3:53 AM 42.1 °F 39.2 °F 37.0 °F 82% 30.45 in 10.0 mi ESE 4.6 mph - N/A   Overcast
4:53 AM 42.1 °F 38.4 °F 35.1 °F 76% 30.46 in 10.0 mi SE 5.8 mph - N/A   Overcast
5:53 AM 42.1 °F 37.1 °F 36.0 °F 79% 30.47 in 10.0 mi SSE 8.1 mph - N/A   Overcast
6:53 AM 42.1 °F 37.1 °F 35.1 °F 76% 30.47 in 10.0 mi SSE 8.1 mph - N/A   Overcast
7:53 AM 42.1 °F 37.7 °F 36.0 °F 79% 30.48 in 10.0 mi SSE 6.9 mph - N/A   Overcast
8:53 AM 43.0 °F 38.8 °F 36.0 °F 76% 30.46 in 10.0 mi SE 6.9 mph - N/A   Overcast
9:53 AM 44.1 °F 39.0 °F 37.0 °F 76% 30.46 in 10.0 mi SE 9.2 mph - N/A   Overcast
10:53 AM 44.1 °F 38.6 °F 36.0 °F 73% 30.44 in 10.0 mi SE 10.4 mph - N/A   Overcast
11:53 AM 44.1 °F 37.1 °F 36.0 °F 73% 30.43 in 10.0 mi SSE 15.0 mph 24.2 mph N/A   Overcast
12:53 PM 45.0 °F 38.5 °F 37.0 °F 74% 30.41 in 10.0 mi SE 13.8 mph - N/A   Overcast
1:53 PM 45.0 °F 38.5 °F 37.0 °F 74% 30.39 in 10.0 mi SE 13.8 mph 23.0 mph N/A   Overcast
2:53 PM 46.9 °F - 37.0 °F 68% 30.35 in 10.0 mi SSE 17.3 mph 23.0 mph N/A   Overcast
3:53 PM 48.0 °F - 37.9 °F 68% 30.31 in 10.0 mi SE 15.0 mph 23.0 mph N/A   Overcast
4:53 PM 46.9 °F - 37.0 °F 68% 30.28 in 10.0 mi SSE 15.0 mph 26.5 mph N/A   Overcast
5:53 PM 46.0 °F 39.6 °F 37.0 °F 71% 30.27 in 10.0 mi SE 15.0 mph 21.9 mph N/A   Overcast
6:53 PM 45.0 °F 39.3 °F 37.0 °F 74% 30.26 in 10.0 mi SE 11.5 mph 20.7 mph N/A   Overcast
7:53 PM 43.0 °F 36.0 °F 36.0 °F 76% 30.23 in 10.0 mi ESE 13.8 mph 25.3 mph N/A   Mostly Cloudy
8:53 PM 44.1 °F 37.4 °F 37.0 °F 76% 30.21 in 10.0 mi SE 13.8 mph - N/A   Overcast
9:53 PM 44.1 °F 38.1 °F 37.9 °F 79% 30.20 in 10.0 mi SE 11.5 mph 20.7 mph 0.00 in   Mostly Cloudy
10:53 PM 43.0 °F 36.0 °F 39.9 °F 89% 30.17 in 9.0 mi SE 13.8 mph 26.5 mph 0.04 in Rain Light Rain
11:21 PM 43.0 °F 35.7 °F 39.9 °F 89% 30.13 in 6.0 mi SE 15.0 mph 26.5 mph 0.02 in Rain Light Rain
11:47 PM 42.8 °F 34.8 °F 41.0 °F 93% 30.11 in 7.0 mi SE 17.3 mph 29.9 mph 0.05 in Rain Light Rain
11:53 PM 43.0 °F 35.4 °F 41.0 °F 93% 30.14 in 10.0 mi SE 16.1 mph 26.5 mph 0.05 in   Overcast